SCP
6 5 4 4 5 5 5 5 5 4 4 3 4 4 3 3 2 2 2 2 2 2 2 2 2 3 3 3 2 2 2 2 1 1 1 2 2 2 3 3 3 2 2
6 5 4 5 5 5 5 5 5 4 3 3 3 3 3 3 2 2 2 2 2 2 2 2 3 3 3 3 3 2 2 2 2 1 1 2 2 3 3 3 3 2 2
7 6 5 6 6 6 5 4 4 4 3 3 3 3 3 2 3 2 2 2 2 2 2 2 3 3 4 4 3 3 2 2 2 2 1 1 2 3 3 3 2 2 2
8 8 7 7 6 6 5 4 4 4 3 3 3 3 2 2 2 2 2 2 2 2 2 3 3 3 3 3 3 3 2 2 2 1 1 1 1 2 2 2 2 2 2
9 8 8 7 6 5 4 4 4 4 4 4 3 3 2 2 2 2 2 2 3 3 3 3 3 3 2 2 2 2 2 2 2 2 1 1 2 2 2 2 2 2 2
8 8 7 7 6 5 4 4 4 4 5 5 4 4 3 2 2 1 2 3 3 4 4 4 3 3 2 2 2 1 1 2 2 2 2 2 2 2 2 2 2 2 2
7 7 7 6 5 4 4 5 5 5 5 5 5 5 4 3 2 2 2 2 3 4 4 4 4 3 2 2 2 1 1 1 1 2 2 2 2 2 2 2 2 2 2
7 7 6 6 5 5 6 6 6 6 6 5 5 5 5 4 3 2 1 2 3 3 4 4 4 4 3 2 2 1 1 1 1 1 2 2 2 2 2 2 2 2 2
8 8 7 6 6 6 7 8 7 7 6 5 5 5 5 4 3 2 1 2 3 3 4 4 4 3 3 2 2 2 2 2 2 1 1 2 1 1 1 2 2 3 3
10 10 8 7 7 7 8 8 7 7 6 5 5 5 5 4 2 1 1 2 3 4 4 4 4 3 2 1 1 2 2 2 2 2 2 2 2 1 1 2 2 3 3
13 12 10 9 8 9 10 8 7 6 6 6 6 6 5 3 2 1 1 2 3 4 4 5 4 3 1 1 1 1 2 2 2 2 2 2 2 2 2 2 2 3 3
15 13 11 9 8 10 12 10 8 7 7 7 7 7 5 3 1 1 1 1 2 3 4 4 4 2 1 1 1 1 1 1 1 2 2 3 3 3 3 3 3 3 3
15 13 10 9 8 9 10 10 8 8 7 8 7 6 5 3 1 1 1 1 1 2 2 2 2 1 1 1 1 1 1 1 1 2 2 2 2 2 2 3 3 3 3
12 11 10 9 7 6 6 7 7 6 7 7 7 5 4 3 2 2 2 2 2 1 1 1 1 1 1 1 1 2 2 2 2 2 2 2 2 2 2 2 3 3 3
10 9 9 8 6 5 4 5 5 5 5 5 5 4 3 2 2 2 2 2 2 2 2 2 2 2 2 2 2 2 2 2 2 2 2 2 2 2 2 2 2 2 2
8 7 7 7 6 4 4 4 4 4 3 3 3 3 2 2 2 2 2 1 1 1 2 3 3 3 3 2 2 2 2 2 2 2 2 2 2 2 2 2 2 2 2
6 6 7 7 6 4 3 3 3 3 2 2 1 1 1 1 1 1 0 0 0 1 1 2 3 3 3 3 2 2 2 2 2 2 3 3 3 3 3 3 3 2 2
6 6 7 7 6 4 3 2 2 2 2 2 2 1 0 0 0 0 0 0 0 1 1 2 2 3 3 2 2 2 1 1 1 2 2 2 3 3 4 4 3 2 2
5 6 7 7 6 4 2 1 1 2 2 2 2 2 1 0 0 0 0 1 1 2 2 2 2 2 2 1 1 1 1 1 1 1 1 2 2 2 3 3 3 2 2
4 4 4 5 4 3 2 1 1 2 2 3 3 3 2 2 2 1 1 2 2 2 2 1 1 1 1 0 0 0 0 0 1 1 1 1 1 1 1 1 2 1 1
3 3 2 3 3 2 2 2 3 3 4 5 5 4 3 3 3 3 2 2 1 1 1 1 0 0 0 0 0 0 0 0 0 0 1 1 0 0 0 0 1 1 1
3 3 3 2 2 2 2 3 3 4 5 6 5 4 4 4 4 3 2 1 0 0 0 0 0 0 0 0 0 0 0 0 0 0 0 0 0 0 0 0 0 0 0
2 3 3 3 2 2 2 2 2 3 4 5 5 4 4 4 3 1 1 0 0 0 0 0 0 0 0 0 0 0 0 0 0 0 0 0 0 0 0 0 0 0 0
1 2 3 3 3 2 2 2 2 3 4 4 4 3 3 2 1 0 0 0 0 0 0 0 0 0 0 0 0 0 0 0 0 0 0 0 0 0 0 0 0 0 0
1 1 2 3 3 2 2 3 3 4 4 4 2 1 1 0 0 0 0 0 0 0 0 0 0 0 0 0 0 0 0 0 0 0 0 0 0 0 0 0 0 0 0
1 1 1 2 2 2 2 3 4 4 3 2 1 1 0 0 0 0 0 0 0 0 0 0 0 0 0 0 0 0 0 0 0 0 0 0 0 0 0 0 0 0 0
Wind_Speed
10 9 7 8 8 7 5 5 5 4 4 4 4 4 4 4 4 3 4 3 4 3 4 4 3 3 2 3 3 2 2 2 3 4 2 2 2 2 2 3 3 4 5
9 8 7 6 7 7 6 5 5 5 4 4 4 4 4 4 4 4 5 4 3 3 3 3 3 3 2 3 3 3 2 2 3 4 3 2 3 3 3 4 4 5 4
9 9 7 6 6 6 5 5 5 5 4 4 4 4 4 3 3 3 3 3 3 3 3 3 2 2 2 3 3 3 2 3 2 3 3 2 2 2 2 3 3 2 4
8 8 7 7 6 5 5 4 4 4 4 3 3 3 2 2 2 2 2 2 2 2 2 1 1 2 3 3 2 2 3 3 3 2 3 3 3 3 2 2 2 2 3
7 7 6 6 6 5 5 4 4 4 4 3 3 2 2 2 1 1 2 2 2 1 1 1 1 1 2 2 2 2 2 2 2 2 3 2 2 2 2 3 3 2 2
6 6 6 5 5 5 5 5 4 3 3 3 3 2 1 1 1 1 1 1 0 0 1 1 1 1 2 1 1 1 1 1 2 2 2 2 3 3 3 3 2 2 2
6 6 6 6 5 5 6 5 4 4 3 3 3 3 3 2 3 3 2 1 1 1 1 1 2 2 2 2 2 2 2 1 1 1 2 3 4 4 4 4 3 2 2
6 6 6 5 5 4 4 4 4 3 3 2 3 3 3 2 3 3 3 1 1 1 1 2 2 3 4 3 2 2 1 1 1 0 1 3 3 3 4 4 3 2 1
6 5 5 5 4 4 4 4 3 3 3 2 3 3 3 3 3 2 2 1 1 1 2 3 3 3 4 4 2 1 1 1 1 1 1 1 2 4 4 3 3 2 2
5 5 5 4 4 4 4 3 3 3 3 3 3 3 4 3 4 4 2 1 2 2 2 3 5 4 4 4 2 1 2 3 3 2 2 2 2 2 2 1 2 2 2
4 4 4 4 4 4 4 4 4 4 4 4 4 4 5 5 5 6 5 2 2 2 2 2 3 4 4 3 2 2 3 4 3 3 2 2 1 1 1 0 0 0 1
4 4 4 4 4 4 4 4 4 4 4 4 4 4 4 4 5 5 5 4 3 3 2 2 3 3 3 4 3 4 6 4 2 2 2 2 2 2 2 1 0 0 1
4 4 5 5 4 5 5 4 3 3 3 3 4 3 4 4 4 6 5 4 4 2 2 3 3 2 2 2 3 4 4 3 3 3 3 3 2 2 2 2 1 1 1
5 5 6 6 7 7 6 5 4 3 3 3 3 3 4 4 4 3 2 3 3 2 2 1 1 2 2 3 3 3 2 3 3 3 3 3 3 3 3 2 2 2 1
6 6 6 6 7 8 8 8 7 6 4 3 4 4 3 4 3 3 2 2 2 2 1 1 1 2 2 3 3 3 3 3 3 3 3 3 3 3 3 2 2 2 2
5 5 5 5 6 7 8 9 14 11 13 14 12 8 6 6 5 7 7 7 7 5 3 3 3 4 4 4 3 3 3 4 3 3 3 3 3 3 3 3 2 2 2
5 5 5 5 5 6 6 7 7 8 13 14 13 12 9 8 8 8 7 7 7 6 5 4 4 4 4 5 4 4 4 4 3 3 3 3 3 3 3 3 3 3 3
6 6 6 5 5 5 6 6 6 6 6 6 8 9 8 8 8 8 6 5 5 5 5 5 4 4 4 4 4 4 4 4 4 4 4 4 3 3 3 3 2 3 3
6 5 5 5 5 5 6 6 6 7 6 6 5 5 5 5 6 7 5 4 5 5 5 5 4 4 4 4 4 4 4 3 4 4 4 5 4 4 3 3 3 4 3
6 7 6 5 6 6 6 6 6 6 6 5 5 4 3 4 4 4 4 5 5 5 5 5 4 4 4 4 4 4 4 5 5 5 5 5 4 4 4 4 4 3 3
5 6 7 6 6 6 6 5 6 6 6 6 6 5 4 4 5 5 5 5 5 5 4 4 4 5 5 4 4 5 6 5 5 5 5 5 4 4 3 3 4 4 3
5 5 5 6 6 6 5 5 6 6 7 7 6 5 5 5 5 5 5 5 5 4 5 5 5 5 5 6 6 6 6 7 7 7 6 5 4 4 4 4 4 4 3
6 6 6 6 6 6 6 5 6 6 6 6 6 5 5 4 5 5 5 5 5 6 6 6 6 6 6 6 7 7 7 7 7 7 7 6 6 5 5 5 5 5 5
6 6 6 5 5 5 5 5 5 6 6 6 6 5 5 5 5 6 6 6 6 6 5 5 6 9 10 8 7 7 8 8 8 7 9 7 6 6 5 5 5 6 5
5 5 5 5 5 5 5 6 6 6 6 6 6 6 6 6 6 6 6 6 6 6 7 7 6 7 11 12 10 9 9 9 8 9 7 6 6 6 6 6 5 5 5
5 5 5 5 5 5 5 6 6 7 6 6 6 6 6 6 6 6 6 5 5 6 6 6 8 10 10 9 10 10 9 10 11 11 8 6 6 6 7 5 6 5 6
Wind_Direction
187 191 194 189 194 200 205 206 209 209 216 211 212 210 212 212 215 216 230 223 220 231 244 242 242 256 274 289 290 293 293 275 264 274 271 273 273 274 208 220 203 195 197
182 184 193 190 188 195 200 205 208 202 205 207 209 215 219 216 211 211 225 226 222 229 245 256 259 259 255 276 289 288 280 267 258 269 275 268 261 251 228 233 230 224 213
176 183 186 191 188 191 195 196 199 199 202 204 204 212 218 218 210 215 219 225 230 237 247 252 255 264 269 267 268 278 283 283 274 275 279 274 265 265 253 257 258 250 246
171 179 180 185 185 185 188 183 186 189 191 187 189 199 198 197 205 218 217 220 236 245 255 274 292 284 280 279 278 280 284 293 288 284 280 282 278 272 257 258 266 245 251
163 170 172 175 175 180 183 183 174 175 182 172 174 183 194 198 252 253 235 221 234 254 290 311 310 339 339 324 302 303 301 296 299 294 289 296 298 306 290 272 267 264 250
156 162 158 164 172 174 175 173 164 165 168 156 160 170 172 171 36 51 7 297 35 20 335 311 285 17 7 19 2 350 332 304 305 297 296 303 306 305 301 287 277 274 272
154 158 158 163 173 174 173 164 162 163 163 162 156 142 118 71 54 68 74 9 23 27 0 344 326 358 6 1 355 21 37 31 282 280 305 305 307 313 313 306 296 287 280
152 154 156 162 168 160 158 156 153 151 153 153 147 130 120 90 74 77 69 94 58 25 22 17 24 18 9 8 2 24 7 2 314 270 289 302 314 317 309 302 298 296 307
149 149 149 155 155 152 158 156 149 148 147 139 124 119 112 81 45 63 77 162 121 79 58 45 41 32 9 9 12 16 345 319 270 212 213 288 333 349 348 351 341 332 315
148 145 144 144 144 147 149 146 140 135 130 125 113 101 96 81 55 64 70 67 85 86 79 65 53 37 23 27 21 8 337 315 314 315 303 286 280 325 356 335 317 324 325
125 129 133 134 141 141 135 135 132 128 121 114 108 99 86 78 71 66 60 49 49 60 60 59 50 39 40 33 26 1 318 310 305 302 308 316 326 351 23 18 357 318 312
110 115 121 121 130 133 121 119 118 119 119 118 112 102 91 81 73 73 70 58 37 45 47 54 48 36 34 26 19 351 345 343 335 344 349 343 350 355 350 358 37 325 224
101 100 97 96 89 92 101 106 110 116 115 116 113 106 92 83 71 64 68 65 56 57 52 56 42 25 15 21 15 360 1 2 350 347 353 352 349 343 341 352 358 343 313
94 90 86 85 80 70 64 63 65 58 81 86 85 91 92 78 53 32 40 58 64 74 61 50 27 13 1 359 22 23 22 10 355 354 357 353 355 359 1 356 348 344 2
95 93 92 93 90 78 67 52 60 50 39 80 85 80 79 74 29 19 49 47 37 39 11 33 47 49 45 37 34 30 25 15 7 1 358 353 353 357 354 355 358 352 349
107 105 106 104 102 102 100 82 57 63 61 62 66 79 74 73 70 62 56 46 38 41 59 57 43 33 28 25 24 24 32 23 8 7 5 356 351 352 349 351 2 3 353
101 106 108 108 114 117 115 111 101 73 63 62 63 70 76 74 65 59 55 46 37 43 59 56 46 37 29 24 21 21 20 15 0 2 4 353 346 347 354 356 356 357 355
93 96 100 105 109 114 115 115 115 112 101 81 66 67 71 69 60 52 53 55 54 51 54 53 47 40 33 26 22 17 13 11 0 351 353 348 349 349 352 351 356 359 353
85 94 97 100 104 106 108 107 103 99 97 98 95 75 67 77 65 51 48 52 60 55 55 51 45 40 34 28 18 8 8 7 359 353 357 351 348 352 356 355 2 5 356
85 90 96 99 96 96 97 98 99 101 100 96 92 90 96 86 75 66 57 53 56 53 49 47 43 43 36 25 15 7 9 11 6 5 358 351 352 354 353 358 359 351 352
94 95 97 100 99 99 99 100 101 100 101 98 90 79 88 95 84 77 71 64 60 58 49 45 42 39 33 24 19 16 17 12 4 358 354 348 347 348 349 356 354 349 350
92 92 90 92 93 95 95 93 96 100 102 103 103 96 82 78 78 75 71 65 61 56 51 48 45 40 32 28 26 22 19 13 3 356 348 344 344 343 348 351 348 347 351
92 95 97 99 102 103 103 101 99 98 96 96 97 95 88 78 77 75 71 65 61 59 55 53 50 43 36 36 35 31 23 9 353 345 344 346 350 350 356 1 1 5 8
97 101 106 109 110 110 108 103 102 101 99 97 96 95 91 84 77 72 70 66 63 62 59 58 56 51 47 41 35 33 24 5 349 346 344 341 347 352 354 356 358 2 5
100 101 102 103 102 103 102 100 99 97 95 92 88 86 84 80 77 74 71 69 68 64 59 59 53 50 50 45 39 29 13 6 5 352 340 340 350 355 353 354 356 357 357
102 103 102 101 100 98 97 96 95 92 90 89 88 86 84 83 80 76 73 70 69 68 64 62 58 56 50 44 37 29 15 6 360 351 340 338 352 6 358 350 353 357 358